Bemidji, MN

3:43 PM CDT on August 19, 2017 (GMT -0500)
Bemidji-Beltrami County

Weather History for KBJI - November, 2014

Change the Weather History Date:

Thursday, November 13, 2014

  Actual Average Record
Temperature  
Mean Temperature 8 °F -  
Max Temperature 17 °F 34 °F 64 °F (2001)
Min Temperature 0 °F 21 °F -5 °F (1959)
Degree Days  
Heating Degree Days 56    
Moisture  
Dew Point 9 °F    
Average Humidity 84    
Maximum Humidity 92    
Minimum Humidity 75    
Precipitation  
Precipitation 0.00 in - - ()
Sea Level Pressure  
Sea Level Pressure 30.34 in    
Wind  
Wind Speed 11 mph (WNW)    
Max Wind Speed 17 mph    
Max Gust Speed 22 mph    
Visibility 6 miles    
Events Snow    
Averages and records for this station are not official NWS values.
T = Trace of Precipitation, MM = Missing Value Source: NWS Daily Summary

Daily Weather History Graph

Daily Weather History Graph

Search for Another Location

Airport or City:

Trip Planner

Search our weather history database for the weather conditions in past years. The results will help you decide how hot, cold, wet, or windy it might be!

Date:

Astronomy

Nov. 13, 2014 Rise Set
Actual Time 7:21 AM CST 4:45 PM CST
Civil Twilight 6:48 AM CST 5:19 PM CST
Nautical Twilight 6:11 AM CST 5:56 PM CST
Astronomical Twilight 5:34 AM CST 6:32 PM CST
Moon 11:09 PM CST (11/13) 12:37 PM CST (11/13)
Length of Visible Light 10h 30m
Length of Day
9h 24m
Waning Gibbous, 58% of the Moon is Illuminated
Nov 13
Waning Gibbous
Nov 14
Last Quarter
Nov 22
New
Nov 29
First Quarter
Dec 6
Full

Hourly Weather History & Observations

Time (CST) Temp. Windchill Dew Point Humidity Pressure Visibility Wind Dir Wind Speed Gust Speed Precip Events Conditions
12:13 AM 17.4 °F 3.5 °F 14.5 °F 88% 30.33 in 3.0 mi WNW 13.8 mph - N/A Snow Light Snow
12:32 AM 17.1 °F 4.3 °F 14.4 °F 89% 30.33 in 5.0 mi WNW 11.5 mph - N/A Snow Light Snow
12:52 AM 16.9 °F 4.1 °F 14.2 °F 89% 30.33 in 5.0 mi WNW 11.5 mph - N/A Snow Light Snow
1:13 AM 17.4 °F 4.7 °F 14.5 °F 88% 30.33 in 7.0 mi WNW 11.5 mph - N/A Snow Light Snow
1:32 AM 17.6 °F 5.7 °F 14.7 °F 88% 30.33 in 4.0 mi WNW 10.4 mph - N/A Snow Light Snow
1:53 AM 17.4 °F 5.4 °F 14.5 °F 88% 30.33 in 2.5 mi WNW 10.4 mph - N/A Snow Light Snow
2:13 AM 17.2 °F 6.0 °F 14.5 °F 89% 30.33 in 3.0 mi WNW 9.2 mph - N/A Snow Light Snow
2:33 AM 17.4 °F 5.4 °F 14.7 °F 89% 30.34 in 3.0 mi NW 10.4 mph - N/A Snow Light Snow
2:53 AM 17.6 °F 5.0 °F 14.9 °F 89% 30.34 in 3.0 mi WNW 11.5 mph - N/A Snow Light Snow
3:13 AM 17.6 °F 4.3 °F 14.9 °F 89% 30.34 in 4.0 mi WNW 12.7 mph - N/A Snow Light Snow
3:33 AM 17.2 °F 3.9 °F 14.0 °F 87% 30.34 in 5.0 mi NW 12.7 mph - N/A Snow Light Snow
3:53 AM 16.0 °F 2.9 °F 13.1 °F 88% 30.34 in 10.0 mi NW 11.5 mph - N/A Snow Light Snow
4:13 AM 16.9 °F 1.7 °F 13.5 °F 86% 30.34 in 10.0 mi NW 16.1 mph 19.6 mph N/A Snow Light Snow
4:32 AM 16.3 °F 2.1 °F 13.3 °F 88% 30.34 in 7.0 mi WNW 13.8 mph - N/A Snow Light Snow
4:53 AM 15.6 °F 2.5 °F 12.2 °F 86% 30.34 in 7.0 mi WNW 11.5 mph - N/A Snow Light Snow
5:13 AM 15.6 °F 0.6 °F 12.2 °F 86% 30.34 in 7.0 mi WNW 15.0 mph - N/A Snow Light Snow
5:33 AM 15.6 °F 1.2 °F 12.6 °F 88% 30.34 in 5.0 mi WNW 13.8 mph - N/A Snow Light Snow
5:53 AM 15.6 °F 1.2 °F 12.4 °F 87% 30.34 in 5.0 mi WNW 13.8 mph - N/A Snow Light Snow
6:13 AM 15.4 °F 1.0 °F 12.2 °F 87% 30.34 in 3.0 mi WNW 13.8 mph - N/A Snow Light Snow
6:33 AM 15.3 °F 0.2 °F 12.2 °F 88% 30.34 in 5.0 mi WNW 15.0 mph - N/A Snow Light Snow
6:53 AM 15.3 °F 1.4 °F 11.8 °F 86% 30.34 in 5.0 mi WNW 12.7 mph - N/A Snow Light Snow
7:13 AM 14.9 °F 1.6 °F 11.8 °F 88% 30.34 in 2.5 mi WNW 11.5 mph - N/A Snow Light Snow
7:32 AM 14.4 °F 0.2 °F 11.1 °F 87% 30.34 in 2.0 mi WNW 12.7 mph - N/A Snow Light Snow
7:53 AM 14.0 °F 1.2 °F 10.4 °F 86% 30.34 in 3.0 mi WNW 10.4 mph - N/A Snow Light Snow
8:13 AM 12.7 °F -3.6 °F 8.8 °F 84% 30.36 in 2.5 mi WNW 16.1 mph - N/A Snow Light Snow
8:33 AM 12.2 °F -3.1 °F 8.6 °F 85% 30.36 in 2.5 mi WNW 13.8 mph - N/A Snow Light Snow
8:52 AM 12.0 °F -2.7 °F 8.1 °F 84% 30.36 in 0.8 mi WNW 12.7 mph - N/A Snow Light Snow
9:13 AM 12.0 °F -2.7 °F 7.7 °F 83% 30.36 in 3.0 mi WNW 12.7 mph - N/A Snow Light Snow
9:32 AM 11.8 °F -3.0 °F 7.7 °F 83% 30.36 in 2.0 mi WNW 12.7 mph - N/A Snow Light Snow
9:53 AM 12.2 °F -3.1 °F 8.1 °F 83% 30.36 in 2.5 mi WNW 13.8 mph 21.9 mph N/A Snow Light Snow
10:13 AM 12.6 °F -2.0 °F 8.4 °F 83% 30.36 in 2.5 mi WNW 12.7 mph 16.1 mph N/A Snow Light Snow
10:32 AM 13.8 °F -1.7 °F 8.6 °F 80% 30.36 in 3.0 mi WNW 15.0 mph - N/A Snow Light Snow
10:52 AM 14.5 °F -0.2 °F 8.8 °F 78% 30.36 in 3.0 mi WNW 13.8 mph - N/A Snow Light Snow
11:13 AM 15.3 °F 0.8 °F 9.5 °F 78% 30.36 in 4.0 mi WNW 13.8 mph - N/A Snow Light Snow
11:32 AM 14.7 °F -1.1 °F 8.8 °F 77% 30.35 in 5.0 mi WNW 16.1 mph - N/A Snow Light Snow
11:53 AM 14.9 °F 0.3 °F 9.0 °F 77% 30.35 in 7.0 mi NW 13.8 mph - N/A Snow Light Snow
12:13 PM 16.2 °F 1.9 °F 9.9 °F 76% 30.34 in 5.0 mi WNW 13.8 mph 18.4 mph N/A Snow Light Snow
12:33 PM 15.8 °F -0.2 °F 9.5 °F 76% 30.34 in 7.0 mi WNW 17.3 mph - N/A Snow Light Snow
12:52 PM 15.8 °F 1.4 °F 9.7 °F 77% 30.34 in 7.0 mi West 13.8 mph - N/A Snow Light Snow
1:13 PM 15.8 °F 0.9 °F 10.0 °F 78% 30.33 in 7.0 mi WNW 15.0 mph - N/A Snow Light Snow
1:33 PM 15.8 °F 1.4 °F 9.3 °F 76% 30.33 in 7.0 mi WNW 13.8 mph - N/A Snow Light Snow
1:52 PM 15.8 °F 0.3 °F 9.1 °F 75% 30.32 in 10.0 mi WNW 16.1 mph - N/A Snow Light Snow
2:13 PM 15.8 °F 1.4 °F 9.1 °F 75% 30.32 in 10.0 mi WNW 13.8 mph 19.6 mph N/A   Overcast
2:32 PM 16.2 °F 1.9 °F 9.5 °F 75% 30.32 in 7.0 mi NW 13.8 mph - N/A Snow Light Snow
2:52 PM 15.8 °F 2.7 °F 9.3 °F 76% 30.32 in 7.0 mi NW 11.5 mph - N/A Snow Light Snow
3:13 PM 14.7 °F 0.1 °F 8.6 °F 77% 30.32 in 7.0 mi WNW 13.8 mph - N/A Snow Light Snow
3:32 PM 14.0 °F -1.4 °F 7.9 °F 77% 30.32 in 1.0 mi WNW 15.0 mph - N/A Snow Light Snow
3:53 PM 13.6 °F -1.3 °F 7.7 °F 77% 30.32 in 7.0 mi WNW 13.8 mph - N/A Snow Light Snow
4:13 PM 12.9 °F -0.9 °F 7.3 °F 78% 30.33 in 7.0 mi WNW 11.5 mph - N/A Snow Light Snow
4:32 PM 12.2 °F -1.0 °F 6.8 °F 79% 30.33 in 7.0 mi WNW 10.4 mph - N/A Snow Light Snow
4:53 PM 12.2 °F -1.0 °F 7.3 °F 81% 30.33 in 5.0 mi West 10.4 mph - N/A Snow Light Snow
5:13 PM 11.7 °F -2.5 °F 7.2 °F 82% 30.33 in 2.5 mi West 11.5 mph - N/A Snow Light Snow
5:32 PM 11.3 °F -1.3 °F 6.8 °F 82% 30.34 in 5.0 mi West 9.2 mph - N/A Snow Light Snow
5:52 PM 10.8 °F -2.0 °F 6.8 °F 84% 30.34 in 7.0 mi West 9.2 mph - N/A Snow Light Snow
6:13 PM 10.2 °F -2.7 °F 6.4 °F 85% 30.34 in 7.0 mi West 9.2 mph - N/A Snow Light Snow
6:32 PM 10.0 °F -2.9 °F 6.4 °F 85% 30.34 in 7.0 mi West 9.2 mph - N/A Snow Light Snow
6:52 PM 8.6 °F -4.7 °F 5.7 °F 88% 30.33 in 5.0 mi West 9.2 mph - N/A Snow Light Snow
7:13 PM 7.5 °F -3.9 °F 4.6 °F 88% 30.33 in 10.0 mi West 6.9 mph - N/A   Clear
7:32 PM 6.6 °F -5.0 °F 3.9 °F 89% 30.32 in 7.0 mi West 6.9 mph - N/A Snow Light Snow
7:53 PM 5.7 °F -3.2 °F 2.8 °F 88% 30.32 in 10.0 mi WNW 4.6 mph - N/A   Clear
8:13 PM 6.6 °F -0.3 °F 4.3 °F 90% 30.32 in 10.0 mi West 3.5 mph - N/A   Clear
8:32 PM 7.0 °F -1.7 °F 4.6 °F 90% 30.32 in 10.0 mi West 4.6 mph - N/A Snow Light Snow
8:53 PM 4.6 °F - 2.3 °F 90% 30.32 in 10.0 mi Calm Calm - N/A Snow Light Snow
9:13 PM 4.8 °F -2.3 °F 3.0 °F 92% 30.32 in 10.0 mi West 3.5 mph - N/A   Clear
9:32 PM 6.3 °F - 3.7 °F 89% 30.32 in 10.0 mi Calm Calm - N/A   Clear
9:53 PM 3.4 °F - -0.0 °F 86% 30.32 in 1.0 mi Calm Calm - N/A Snow Light Snow
10:13 PM 3.2 °F - 0.9 °F 90% 30.32 in 10.0 mi Calm Calm - N/A   Clear
10:32 PM 1.8 °F - -0.8 °F 89% 30.32 in 7.0 mi Calm Calm - N/A   Clear
10:53 PM 2.5 °F - -0.2 °F 88% 30.32 in 10.0 mi Calm Calm - N/A Snow Light Snow
11:13 PM 0.3 °F - -3.3 °F 85% 30.32 in 10.0 mi Calm Calm - N/A Snow Light Snow
11:32 PM 2.8 °F - 0.1 °F 88% 30.32 in 7.0 mi Calm Calm - N/A Snow Light Snow
11:53 PM 4.1 °F - 1.0 °F 87% 30.32 in 1.0 mi Calm Calm - N/A Snow Light Snow